Theta_e
352 350 353 350 353 356 356 358 358 359 358 355 354 354 353 353 353 354 355 353 355 356 356 358 358 358 357 356 356 356 356 357 357 358 358 358 358 359 359 358 359 358 357
353 351 351 351 355 355 358 358 360 358 357 354 354 354 354 354 357 357 356 353 356 357 356 358 360 358 358 357 357 357 357 356 357 357 357 357 357 356 356 356 356 357 356
359 357 352 353 355 360 365 363 358 358 359 356 356 353 354 356 356 356 356 355 354 356 357 359 360 358 357 356 356 355 356 356 356 356 355 354 353 353 352 352 352 355 355
360 361 353 352 358 361 356 353 352 353 354 352 350 349 354 356 355 357 356 357 356 352 358 361 361 358 357 357 357 356 356 355 354 354 353 353 352 351 350 351 351 351 352
361 360 351 355 363 354 352 349 357 355 349 350 348 351 352 353 354 353 356 355 354 354 353 361 362 359 358 358 357 355 355 356 355 355 355 354 353 351 350 349 348 348 349
359 361 352 358 362 350 350 356 360 356 353 350 344 348 351 353 355 355 355 353 356 357 357 357 355 355 362 359 359 357 355 355 354 356 356 355 354 352 351 349 347 347 347
358 362 354 359 362 363 363 358 356 360 346 351 347 346 350 353 353 353 356 354 356 356 357 358 358 356 356 363 361 358 355 354 353 354 356 356 354 353 351 351 349 347 348
358 359 364 361 361 357 360 360 359 349 346 351 345 347 340 342 352 351 354 353 354 356 355 358 358 359 360 355 362 359 356 355 355 355 356 356 354 354 353 351 349 347 346
356 361 363 364 362 362 355 359 358 357 345 348 355 347 336 330 337 351 352 355 356 358 358 359 358 360 360 360 359 358 355 356 355 356 357 356 356 355 354 352 351 349 347
356 358 361 361 363 359 366 357 355 358 357 348 351 351 355 358 342 333 350 352 354 356 356 359 358 358 361 357 363 358 356 356 354 354 355 356 357 356 355 354 352 350 349
358 355 360 362 362 358 364 361 360 362 358 351 347 348 356 348 349 340 340 340 346 348 356 359 358 358 361 361 362 354 356 354 354 354 354 354 355 356 357 356 355 353 351
355 361 359 363 364 361 360 357 362 362 363 361 356 353 348 346 343 342 343 343 343 349 352 358 357 360 363 359 360 355 353 352 351 349 349 348 348 349 350 353 356 357 356
351 363 365 363 359 363 363 362 365 363 360 359 362 352 355 347 350 346 341 344 341 348 351 353 360 359 362 360 358 356 351 349 346 345 345 346 347 348 351 349 351 355 357
347 358 361 361 362 362 363 363 357 355 365 357 359 362 356 351 357 349 345 348 342 341 355 359 357 357 365 362 359 357 349 344 342 343 343 343 344 346 348 350 351 352 354
351 359 358 359 362 362 365 368 356 362 359 361 358 361 358 353 352 351 350 349 346 339 346 355 355 362 359 360 356 358 356 340 341 341 341 341 341 343 344 345 346 348 350
362 363 360 358 360 361 362 363 361 366 360 357 354 362 361 354 355 352 351 355 355 348 342 351 354 361 360 360 357 362 355 342 339 338 338 337 339 340 341 342 343 344 346
361 362 362 360 359 359 359 362 362 361 358 361 362 361 360 366 355 352 358 356 351 352 344 348 355 363 362 363 358 361 350 352 342 335 334 334 335 336 337 338 339 340 341
361 363 363 364 361 359 361 362 358 357 359 358 359 362 357 354 364 364 352 366 361 359 351 361 366 358 365 363 361 358 355 354 348 334 332 331 331 332 332 332 334 334 335
363 358 361 364 362 359 363 362 363 360 358 358 359 360 359 362 364 357 361 362 356 355 360 352 349 355 359 360 356 355 355 354 348 332 329 329 329 329 328 327 326 325 324
363 362 362 365 363 361 360 361 361 360 359 357 360 361 359 363 365 365 360 365 360 356 357 351 351 356 361 361 354 346 342 345 345 340 335 335 330 328 327 325 325 323 320
363 366 365 361 363 359 354 362 362 360 363 358 360 360 359 363 353 355 356 362 367 359 351 351 348 355 362 353 349 349 345 343 343 346 341 338 335 334 331 327 328 325 322
364 366 365 363 363 356 343 341 351 356 362 360 358 360 363 356 353 345 343 344 349 362 359 356 351 354 359 361 356 351 347 336 332 342 341 339 339 338 337 335 327 322 320
363 363 362 362 362 362 340 336 341 351 353 360 361 361 358 353 356 363 345 341 342 338 341 357 356 358 362 366 365 358 351 343 342 344 342 336 341 338 338 322 320 319 318
358 358 358 360 362 363 336 332 338 354 355 357 361 362 363 364 362 361 360 359 359 360 358 354 357 359 365 366 368 365 362 357 357 345 347 337 340 335 333 328 318 318 316
355 355 355 359 359 359 335 330 338 358 354 358 359 362 362 363 346 334 359 359 360 361 344 340 344 346 339 337 346 364 355 350 342 344 344 342 335 326 326 324 319 317 315
355 354 351 356 347 358 338 330 336 356 357 353 360 362 339 347 329 325 357 360 356 356 359 358 359 350 338 346 333 357 356 349 346 338 344 337 328 319 315 319 319 317 313
Wind_Speed
3 5 3 4 1 2 3 3 4 2 3 5 5 6 8 7 6 6 7 11 7 5 4 4 6 7 8 7 6 6 6 7 8 9 9 9 9 10 11 11 11 10 8
3 5 5 5 4 2 2 3 3 4 4 3 1 3 5 6 4 6 11 8 11 7 6 7 9 9 9 8 7 6 6 6 7 8 8 8 8 8 9 10 10 10 9
4 2 5 3 3 2 4 8 5 3 5 5 7 5 3 2 7 3 2 9 10 11 8 8 10 9 8 7 5 5 5 5 6 6 6 6 5 6 6 5 6 7 7
4 7 4 4 4 5 8 2 5 1 9 3 4 5 3 0 4 4 3 2 10 10 10 10 9 9 8 6 6 5 4 4 5 5 5 5 5 5 4 4 4 5 6
6 8 5 4 5 5 1 7 1 3 11 8 4 2 5 5 8 8 7 5 4 10 10 12 10 9 8 7 6 4 4 4 4 5 5 6 6 5 4 3 4 5 5
6 6 4 3 7 5 4 6 7 6 8 7 8 7 7 4 2 6 6 7 8 2 14 10 9 9 10 8 6 5 2 1 3 5 7 8 7 7 6 6 6 5 5
5 7 6 5 7 3 5 2 6 9 8 8 5 13 8 7 8 6 3 5 8 7 9 5 3 6 7 11 8 5 2 1 2 4 7 8 8 7 6 6 6 5 6
7 7 6 6 6 5 2 2 4 8 10 2 7 7 4 9 5 4 6 6 6 7 7 6 5 7 9 5 9 8 5 2 2 4 6 7 7 7 8 7 6 6 6
8 7 4 4 2 7 5 4 4 5 10 6 2 2 6 3 5 8 5 7 3 3 5 6 3 7 4 8 12 9 6 4 3 2 5 7 8 9 8 8 8 8 7
8 8 6 5 4 5 5 3 7 6 3 8 4 2 3 3 5 4 6 5 3 2 3 5 8 6 7 9 9 9 9 6 3 2 2 2 7 8 9 9 9 9 8
8 8 8 7 6 6 4 5 5 5 6 7 6 4 7 5 3 5 10 5 6 10 5 8 5 6 5 8 8 10 10 7 5 5 4 3 2 3 9 10 10 10 10
9 9 7 6 7 6 5 5 6 6 7 7 9 5 6 2 8 3 3 6 8 5 4 4 2 4 5 7 10 13 11 8 6 6 5 3 2 1 3 7 8 10 12
2 11 9 6 7 7 7 5 5 7 5 7 5 9 6 5 4 5 4 2 3 6 5 5 4 2 4 8 9 13 11 9 7 5 5 3 3 3 5 4 7 9 8
6 10 10 7 8 8 8 7 7 8 8 7 7 6 9 6 3 3 5 3 4 0 5 4 5 5 5 5 11 11 8 9 8 6 4 4 3 3 5 6 3 1 6
6 3 4 5 7 8 8 7 8 8 4 6 7 7 6 9 6 5 4 4 3 7 3 2 2 5 6 7 10 8 9 10 8 7 5 4 3 3 4 5 5 3 5
9 6 6 8 7 7 7 5 10 6 6 7 7 4 4 9 5 4 7 1 3 5 3 3 1 3 5 6 7 5 9 12 7 6 5 3 3 3 3 4 4 5 5
9 9 9 10 9 9 8 8 8 8 7 6 9 5 7 7 7 6 1 2 5 8 5 3 3 5 2 3 7 6 8 8 7 6 5 5 4 4 4 3 4 4 5
12 10 11 11 10 10 9 9 10 10 5 9 9 9 9 8 8 7 6 7 4 6 8 3 3 6 6 6 6 6 7 7 8 9 7 5 5 5 5 5 4 4 5
12 14 12 11 11 12 10 10 10 11 10 10 10 9 10 10 7 8 6 4 6 7 7 7 8 6 6 6 7 3 3 4 4 10 7 6 6 5 4 4 4 4 4
12 13 13 12 13 12 13 12 12 12 12 11 10 10 10 11 8 9 9 7 8 7 6 7 9 5 7 8 6 6 4 4 6 7 5 4 8 7 5 5 5 6 5
12 12 12 13 13 13 12 13 12 12 12 13 11 11 11 11 8 8 9 10 7 7 8 7 7 3 4 4 8 7 7 7 8 7 7 7 7 7 7 8 8 7 7
11 11 12 12 13 13 13 12 11 12 12 11 11 11 11 8 11 9 9 10 8 7 10 9 8 5 8 7 8 9 7 4 4 8 8 7 8 8 7 7 11 11 8
11 12 12 13 14 14 9 9 11 14 12 11 12 11 12 12 14 13 15 14 13 11 12 10 11 11 8 6 8 9 10 11 10 6 11 9 9 7 5 8 12 10 9
9 7 9 11 11 10 7 9 12 12 12 13 11 11 11 11 11 8 12 13 14 13 14 12 13 13 11 10 8 10 10 11 7 6 10 7 8 5 6 6 10 11 11
6 8 9 10 11 12 14 10 10 11 13 12 12 12 12 12 11 9 11 13 12 11 10 19 17 12 10 6 6 7 8 7 6 8 9 5 5 4 5 6 7 12 10
7 7 8 11 10 11 10 11 11 8 10 10 12 11 11 12 7 1 7 11 13 13 12 16 7 9 8 10 9 10 10 10 10 7 8 9 7 6 4 4 6 7 7
Wind_Direction
199 197 93 205 343 59 98 250 275 42 336 270 336 324 323 56 22 119 111 136 143 142 143 163 152 159 156 163 187 198 194 196 200 208 215 223 235 246 253 254 254 251 242
167 128 178 160 125 164 247 283 21 301 281 348 66 345 326 97 32 321 123 153 159 152 154 169 156 161 151 158 175 182 185 189 201 209 216 225 234 241 244 245 243 241 241
154 221 162 195 136 148 243 223 251 210 259 229 153 162 228 145 134 123 127 146 153 172 161 156 150 153 153 160 168 170 177 191 208 214 217 223 222 242 248 250 235 228 234
170 242 165 162 138 242 234 97 266 273 335 298 131 135 85 128 144 144 251 141 151 137 156 153 155 153 159 163 164 177 185 199 208 208 205 205 211 223 231 237 211 222 227
178 262 219 147 203 231 328 274 286 337 189 271 166 164 119 150 184 168 128 163 90 143 131 150 156 162 166 169 169 172 188 202 219 212 206 205 207 205 199 182 206 215 220
193 244 182 140 243 226 223 20 335 343 275 290 317 89 117 154 154 154 179 188 114 139 127 153 168 178 176 167 176 171 176 240 217 205 199 196 192 184 186 186 192 203 210
191 225 193 194 252 358 17 345 287 260 301 14 37 288 131 178 192 160 185 123 155 181 125 159 195 134 177 171 164 170 156 303 195 189 184 182 184 179 184 194 196 202 212
179 207 275 185 216 137 180 287 299 305 287 59 302 3 352 354 139 158 174 110 158 144 141 189 120 143 189 155 151 160 150 135 163 180 185 180 182 185 190 196 202 211 218
191 242 222 334 155 303 176 218 247 294 302 315 47 183 49 254 296 354 163 131 158 134 138 136 197 131 197 152 153 145 151 149 155 157 184 189 199 201 206 207 208 214 220
197 202 209 239 240 273 13 257 231 302 278 302 14 313 260 185 136 252 245 118 222 111 166 158 158 163 204 90 109 109 145 143 139 135 131 220 217 210 212 216 219 221 222
206 210 205 214 233 246 235 281 313 264 306 293 300 304 360 274 143 346 88 313 55 326 150 148 191 169 179 141 137 126 135 140 133 118 98 83 84 207 220 222 222 224 226
187 213 201 216 227 253 237 250 240 262 279 316 318 310 250 319 224 53 34 241 174 279 149 160 161 139 164 80 95 134 137 136 127 117 107 96 74 1 270 260 251 231 223
249 170 199 212 217 223 271 260 237 273 256 267 259 292 297 274 353 318 312 346 3 192 135 202 132 189 131 116 136 134 134 133 130 130 123 100 61 5 343 300 258 246 235
140 235 178 222 216 252 227 245 237 236 220 225 246 284 310 296 272 253 291 337 297 111 81 25 155 187 92 104 115 138 133 139 143 144 131 107 72 41 27 22 49 319 275
255 265 184 229 241 243 242 255 240 267 233 228 256 228 253 285 294 259 278 299 314 297 112 195 153 125 128 156 153 188 150 149 151 146 135 125 105 65 52 46 45 47 50
215 281 205 224 228 231 222 233 286 232 230 255 244 230 257 276 276 282 272 162 294 279 322 141 266 173 172 138 153 181 128 147 143 137 135 126 94 82 74 67 63 70 82
235 215 220 234 230 223 228 225 239 277 253 267 288 224 228 271 280 300 319 200 276 278 256 285 174 122 148 201 139 156 163 186 148 145 147 152 156 152 146 124 114 103 102
222 225 224 228 235 233 226 225 229 251 246 236 245 273 247 241 207 249 274 285 179 285 291 258 152 160 172 201 166 184 195 204 131 153 163 178 175 167 160 149 138 121 117
222 228 215 225 233 237 232 223 230 234 243 241 241 224 250 250 245 271 293 291 229 211 211 247 268 212 155 179 167 200 241 80 124 139 170 178 179 179 171 155 142 128 116
221 230 234 225 219 231 238 229 221 225 239 235 236 242 234 247 238 243 243 262 267 273 262 242 252 169 173 169 192 196 202 216 216 193 157 152 159 157 161 164 151 135 124
221 227 231 238 239 231 230 227 229 228 222 239 244 225 235 254 246 241 254 232 265 239 253 215 240 251 168 158 198 207 220 201 218 226 200 182 186 186 173 194 151 148 135
245 225 228 230 236 243 224 218 230 226 232 223 242 242 250 251 231 230 238 265 272 273 265 287 275 228 188 207 187 209 195 178 221 216 215 210 206 199 172 201 111 137 146
235 236 238 232 228 242 247 203 203 233 246 239 220 230 239 244 207 224 220 230 247 242 236 260 267 274 293 226 208 213 194 206 228 147 191 212 202 199 188 112 129 149 155
244 249 255 253 251 247 258 203 190 229 243 248 257 242 240 258 271 260 234 224 220 233 226 230 235 252 262 264 224 217 218 217 232 156 194 212 182 177 168 129 159 165 159
255 258 260 263 256 255 248 226 215 231 235 238 247 250 254 254 256 262 264 267 272 266 241 212 219 216 199 227 257 228 216 204 202 202 190 213 163 126 174 182 172 177 168
242 257 248 254 259 264 256 216 215 237 246 248 220 228 251 263 306 36 251 257 261 260 268 276 228 245 234 231 215 236 233 218 218 206 188 187 155 145 179 190 183 176 172